TimeEST,TemperatureF,Dew PointF,Humidity,Sea Level PressureIn,VisibilityMPH,Wind Direction,Wind SpeedMPH,Gust SpeedMPH,PrecipitationIn,Events,Conditions,WindDirDegrees,DateUTC
12:15 AM,34.3,30.4,85,30.16,10.0,Calm,Calm,-,N/A,,Clear,0,2013-02-07 05:15:00
12:35 AM,33.1,30.7,91,30.16,10.0,Calm,Calm,-,N/A,,Clear,0,2013-02-07 05:35:00
12:55 AM,33.1,30.9,92,30.15,10.0,Calm,Calm,-,N/A,,Clear,0,2013-02-07 05:55:00
1:15 AM,32.7,30.2,90,30.16,10.0,Calm,Calm,-,N/A,,Clear,0,2013-02-07 06:15:00
1:35 AM,31.8,29.8,92,30.16,10.0,Calm,Calm,-,N/A,,Clear,0,2013-02-07 06:35:00
1:55 AM,31.8,29.8,92,30.15,10.0,Calm,Calm,-,N/A,,Clear,0,2013-02-07 06:55:00
2:15 AM,32.0,30.0,92,30.15,10.0,Calm,Calm,-,N/A,,Clear,0,2013-02-07 07:15:00
2:35 AM,33.1,30.2,89,30.16,10.0,Calm,Calm,-,N/A,,Clear,0,2013-02-07 07:35:00
2:55 AM,32.2,30.2,92,30.17,10.0,Calm,Calm,-,N/A,,Clear,0,2013-02-07 07:55:00
3:15 AM,32.5,30.6,92,30.17,10.0,Calm,Calm,-,N/A,,Clear,0,2013-02-07 08:15:00
3:35 AM,32.7,31.3,94,30.17,10.0,Calm,Calm,-,N/A,,Clear,0,2013-02-07 08:35:00
3:55 AM,33.6,31.3,91,30.18,10.0,Calm,Calm,-,N/A,,Clear,0,2013-02-07 08:55:00
4:15 AM,33.4,31.3,92,30.18,10.0,Calm,Calm,-,N/A,,Clear,0,2013-02-07 09:15:00
4:35 AM,33.8,32.0,93,30.17,10.0,Calm,Calm,-,N/A,,Scattered Clouds,0,2013-02-07 09:35:00
4:55 AM,34.3,32.0,91,30.17,10.0,Calm,Calm,-,N/A,,Clear,0,2013-02-07 09:55:00
5:15 AM,34.3,32.0,91,30.16,10.0,Calm,Calm,-,N/A,,Mostly Cloudy,0,2013-02-07 10:15:00
5:35 AM,34.7,32.0,90,30.15,10.0,Calm,Calm,-,N/A,,Mostly Cloudy,0,2013-02-07 10:35:00
5:55 AM,34.7,32.2,91,30.15,10.0,Calm,Calm,-,N/A,,Clear,0,2013-02-07 10:55:00
6:15 AM,35.6,32.0,87,30.16,10.0,Calm,Calm,-,N/A,,Scattered Clouds,0,2013-02-07 11:15:00
6:35 AM,34.9,32.9,92,30.16,10.0,Calm,Calm,-,N/A,,Mostly Cloudy,0,2013-02-07 11:35:00
7:15 AM,35.4,32.9,91,30.16,10.0,Calm,Calm,-,N/A,,Overcast,0,2013-02-07 12:15:00
7:35 AM,36.5,33.3,88,30.15,10.0,Calm,Calm,-,N/A,,Overcast,0,2013-02-07 12:35:00
7:55 AM,37.6,33.8,86,30.15,10.0,Calm,Calm,-,N/A,,Overcast,0,2013-02-07 12:55:00
8:15 AM,37.4,34.3,89,30.14,10.0,Calm,Calm,-,N/A,,Overcast,0,2013-02-07 13:15:00
8:35 AM,38.1,34.3,86,30.15,10.0,Calm,Calm,-,N/A,,Overcast,0,2013-02-07 13:35:00
8:55 AM,38.8,35.8,89,30.15,10.0,Calm,Calm,-,N/A,,Overcast,0,2013-02-07 13:55:00
9:15 AM,39.9,34.2,80,30.14,10.0,Calm,Calm,-,N/A,,Overcast,0,2013-02-07 14:15:00
9:35 AM,40.6,36.1,84,30.13,10.0,Calm,Calm,-,N/A,,Overcast,0,2013-02-07 14:35:00
9:55 AM,41.4,36.3,82,30.12,10.0,Calm,Calm,-,N/A,,Overcast,0,2013-02-07 14:55:00
10:15 AM,42.8,35.6,76,30.11,10.0,Calm,Calm,-,N/A,,Overcast,0,2013-02-07 15:15:00
10:35 AM,43.3,36.5,77,30.12,10.0,Calm,Calm,-,N/A,,Overcast,0,2013-02-07 15:35:00
10:55 AM,44.1,36.7,75,30.11,10.0,Calm,Calm,-,N/A,,Overcast,0,2013-02-07 15:55:00
11:15 AM,44.8,37.4,75,30.10,10.0,Calm,Calm,-,N/A,,Overcast,0,2013-02-07 16:15:00
11:35 AM,45.5,37.6,74,30.11,10.0,Calm,Calm,-,N/A,Rain,Light Rain,0,2013-02-07 16:35:00
11:55 AM,45.7,40.1,81,30.11,7.0,Calm,Calm,-,N/A,Rain,Light Rain,0,2013-02-07 16:55:00
12:15 PM,45.1,41.4,87,30.11,10.0,Calm,Calm,-,0.01,Rain,Light Rain,0,2013-02-07 17:15:00
12:35 PM,45.9,41.4,84,30.09,10.0,Calm,Calm,-,0.01,Rain,Light Rain,0,2013-02-07 17:35:00
12:55 PM,46.0,42.4,87,30.08,10.0,Calm,Calm,-,0.02,Rain,Light Rain,0,2013-02-07 17:55:00
1:15 PM,46.4,42.4,86,30.06,10.0,North,3.5,-,N/A,Rain,Light Rain,360,2013-02-07 18:15:00
1:35 PM,46.8,44.1,90,30.06,10.0,Calm,Calm,-,0.01,Rain,Light Rain,0,2013-02-07 18:35:00
1:55 PM,47.3,44.6,90,30.05,7.0,Calm,Calm,-,0.02,Rain,Light Rain,0,2013-02-07 18:55:00
2:15 PM,47.7,45.5,92,30.04,7.0,Calm,Calm,-,N/A,,Light Drizzle,0,2013-02-07 19:15:00
2:35 PM,48.4,45.7,90,30.03,10.0,East,3.5,-,N/A,Rain,Light Rain,90,2013-02-07 19:35:00
2:55 PM,49.6,43.5,79,30.01,10.0,ENE,5.8,-,N/A,Rain,Light Rain,60,2013-02-07 19:55:00
3:15 PM,50.0,42.8,76,30.00,10.0,NE,8.1,-,N/A,,Overcast,40,2013-02-07 20:15:00
3:35 PM,50.2,42.4,75,29.99,10.0,NE,8.1,-,N/A,,Overcast,50,2013-02-07 20:35:00
3:55 PM,50.0,42.4,75,29.99,10.0,ENE,6.9,-,N/A,Rain,Light Rain,60,2013-02-07 20:55:00
4:15 PM,49.5,43.2,79,29.99,10.0,NE,8.1,-,N/A,Rain,Light Rain,40,2013-02-07 21:15:00
4:35 PM,48.6,42.8,80,29.99,10.0,NE,6.9,-,0.01,Rain,Light Rain,50,2013-02-07 21:35:00
4:55 PM,47.3,43.9,88,29.98,10.0,NE,4.6,-,0.02,Rain,Light Rain,40,2013-02-07 21:55:00
5:15 PM,46.9,44.6,92,29.97,10.0,SSE,4.6,-,N/A,Rain,Rain,160,2013-02-07 22:15:00
5:35 PM,46.6,44.4,92,29.98,7.0,Calm,Calm,-,0.01,Rain,Light Rain,0,2013-02-07 22:35:00
5:55 PM,45.9,44.6,95,29.98,7.0,Calm,Calm,-,0.02,Rain,Light Rain,0,2013-02-07 22:55:00
6:15 PM,45.5,44.6,97,29.99,5.0,Calm,Calm,-,0.01,Rain,Light Rain,0,2013-02-07 23:15:00
6:35 PM,45.3,44.6,97,29.99,5.0,Calm,Calm,-,0.02,Rain,Light Rain,0,2013-02-07 23:35:00
7:15 PM,45.0,44.8,99,29.99,3.0,Calm,Calm,-,N/A,Rain,Light Rain,0,2013-02-08 00:15:00
7:35 PM,44.6,44.6,100,29.98,5.0,Calm,Calm,-,N/A,,Drizzle,0,2013-02-08 00:35:00
7:55 PM,44.2,44.1,99,29.98,2.5,Calm,Calm,-,0.01,,Drizzle,0,2013-02-08 00:55:00
8:15 PM,44.1,43.9,99,29.98,2.0,Calm,Calm,-,N/A,Rain,Light Rain,0,2013-02-08 01:15:00
8:35 PM,44.2,44.1,99,29.98,3.0,Calm,Calm,-,N/A,,Light Drizzle,0,2013-02-08 01:35:00
8:55 PM,43.9,43.7,99,29.97,2.5,Calm,Calm,-,N/A,,Drizzle,0,2013-02-08 01:55:00
9:15 PM,43.7,43.3,99,29.97,2.0,Calm,Calm,-,N/A,,Light Drizzle,0,2013-02-08 02:15:00
9:35 PM,43.5,43.3,99,29.97,1.2,Calm,Calm,-,0.01,,Overcast,0,2013-02-08 02:35:00
9:55 PM,43.7,43.3,99,29.96,0.8,Calm,Calm,-,0.01,,Overcast,0,2013-02-08 02:55:00
10:15 PM,43.7,43.3,99,29.96,0.5,Calm,Calm,-,N/A,Fog,Fog,0,2013-02-08 03:15:00
10:35 PM,43.2,43.0,99,29.96,0.5,Calm,Calm,-,N/A,Fog,Fog,0,2013-02-08 03:35:00
10:55 PM,43.2,43.2,100,29.95,0.5,Calm,Calm,-,N/A,Fog,Fog,0,2013-02-08 03:55:00
11:15 PM,41.7,41.5,99,29.95,0.2,Calm,Calm,-,N/A,Fog,Fog,0,2013-02-08 04:15:00
11:35 PM,42.1,42.1,100,29.94,0.2,Calm,Calm,-,N/A,Fog,Fog,0,2013-02-08 04:35:00
11:55 PM,42.4,42.4,100,29.94,0.5,Calm,Calm,-,N/A,Fog,Fog,0,2013-02-08 04:55:00